This demonstration page uses our WeatherBlox Daily Observations layout. Learn more.

Left ArrowRight Arrow

Hourly Observations for December 14, 2015

Temp ( °F °C ) Dew Point ( °F °C ) Humidity (%) Winds ( mph kmh ) Pressure ( in mb ) Visibility ( mi km ) Precip ( " mm )
12:46 am 00:46 Mostly Cloudy 64 18 59 15 83 83 SSE 5 7 29.94 1014 10 16 0.00 0.00
12:53 am 00:53 Mostly Cloudy 65 18.3 59 15 81 81 SE 9 15 29.90 1013 10 16 0.00 0.00
1:53 am 01:53 Cloudy 66 18.9 60 15.6 81 81 SE 9 15 29.88 1012 10 16 0.00 0.00
2:53 am 02:53 Cloudy with Light Rain 66 18.9 61 16.1 84 84 SSE 8 13 29.87 1012 10 16 0.00 0.03
3:53 am 03:53 Cloudy 65 18.3 62 16.7 90 90 SSE 7 11 29.84 1011 8 13 0.00 0.03
4:53 am 04:53 Cloudy 66 18.9 63 17.2 90 90 S 9 15 29.80 1009 10 16 0.00 0.03
5:53 am 05:53 Cloudy with Light Rain 68 20 63 17.2 84 84 S 9 15 29.80 1009 10 16 0.00 0.03
6:01 am 06:01 Cloudy with Light Rain 68 20 63 17.2 84 84 S 12 19 29.80 1009 10 16 0.00 0.03
6:53 am 06:53 Mostly Cloudy 68 20 63 17.2 84 84 SSE 9 15 29.78 1009 10 16 0.01 0.25
7:53 am 07:53 Cloudy with Light Rain 68 20 63 17.2 84 84 S 13 20 29.78 1008 10 16 0.00 0.03
8:06 am 08:06 Cloudy with Light Rain 68 20 63 17 83 83 S 12 19 29.77 1008 10 16 0.00 0.00
8:53 am 08:53 Cloudy 69 20.6 63 17.2 81 81 S 8 13 29.76 1008 10 16 0.00 0.03
9:38 am 09:38 Cloudy with Heavy Rain 64 18 61 16 88 88 W 10 17 29.80 1009 2 3 0.00 0.00
9:43 am 09:43 Cloudy with Light Rain 63 17.2 59 15 87 87 W 10 17 29.83 1010 3 5 0.05 1.27
9:53 am 09:53 Cloudy with Light Rain 62 16.7 58 14.4 86 86 WSW 9 15 29.81 1009 4 6 0.06 1.52
9:59 am 09:59 Cloudy with Rain 61 16.1 58 14.4 90 90 WSW 7 11 29.83 1010 3 4 0.01 0.25
10:12 am 10:12 Cloudy with Rain 61 16 57 14 88 88 WSW 7 11 29.83 1010 2 3 0.00 0.00
10:28 am 10:28 Cloudy with Light Rain 61 16.1 59 15 93 93 WSW 7 11 29.83 1010 3 4 0.07 1.78
10:31 am 10:31 Cloudy with Light Rain 61 16.1 59 15 93 93 SW 8 13 29.83 1010 3 5 0.07 1.78
10:38 am 10:38 Cloudy with Light Rain 61 16 57 14 88 88 WSW 7 11 29.83 1010 3 4 0.00 0.00
10:45 am 10:45 Cloudy with Light Rain 61 16.1 58 14.4 90 90 SW 7 11 29.83 1010 3 5 0.08 2.03
10:53 am 10:53 Cloudy with Light Rain 61 16.1 58 14.4 90 90 SW 7 11 29.82 1010 3 5 0.09 2.29
11:00 am 11:00 Cloudy with Light Rain 61 16 57 14 88 88 SSW 6 9 29.83 1010 3 4 0.00 0.00
11:07 am 11:07 Cloudy with Light Rain 61 16.1 58 14.4 90 90 SSW 8 13 29.83 1010 4 6 0.01 0.25
11:53 am 11:53 Cloudy with Light Rain 62 16.7 59 15 90 90 S 9 15 29.77 1008 9 14 0.02 0.51
12:45 pm 12:45 Cloudy 63 17.2 59 15 87 87 SSW 12 19 29.77 1008 10 16 0.02 0.51
12:53 pm 12:53 Cloudy 63 17.2 60 15.6 90 90 SSW 10 17 29.75 1007 10 16 0.02 0.51
1:38 pm 13:38 Cloudy with Light Rain 63 17.2 58 14.4 84 84 SW 12 19 29.77 1008 10 16 0.00 0.03
1:53 pm 13:53 Mostly Cloudy with Light Rain 64 17.8 58 14.4 81 81 SSW 10 17 29.73 1007 10 16 0.00 0.03
2:53 pm 14:53 Sunny 65 18.3 53 11.7 66 66 SSW 9 15 29.72 1007 10 16 0.00 0.03
3:53 pm 15:53 Sunny 65 18.3 50 10 59 59 SW 9 15 29.72 1007 10 16 0.00 0.00
4:53 pm 16:53 Sunny 64 17.8 50 10 60 60 SW 8 13 29.73 1007 10 16 0.00 0.00
5:53 pm 17:53 Clear 61 16.1 50 10 67 67 S 5 7 29.75 1007 10 16 0.00 0.00
6:53 pm 18:53 Clear 59 15 50 10 72 72 SW 3 6 29.77 1008 10 16 0.00 0.00
7:53 pm 19:53 Clear 54 12.2 50 10 87 87 Calm 29.79 1009 10 16 0.00 0.00
8:53 pm 20:53 Clear 52 11.1 49 9.4 89 89 Calm 29.80 1009 10 16 0.00 0.00
9:53 pm 21:53 Clear 53 11.7 49 9.4 86 86 SSW 5 7 29.82 1010 10 16 0.00 0.00
10:53 pm 22:53 Clear 51 10.6 48 8.9 89 89 SSW 3 6 29.85 1011 10 16 0.00 0.00
11:53 pm 23:53 Clear 52 11.1 48 8.9 86 86 SW 5 7 29.86 1011 10 16 0.00 0.00

Powered by AerisWeather